GW1452 Weather Reports


Display with metric or nautical units.
time (UTC)temp
F
wind
direction
speed
MPH
gust
MPH
rain 1hr
in
rain 24hr
in
rain mn
in
humidity
%
barometer
mb
20260510104550 70 136 3.0 10.0 0.00 0.00 0.00 77 1010.7
20260510103050 71 0 2.0 7.0 0.00 0.00 0.00 76 1010.6
20260510101552 71 231 2.0 7.0 0.00 0.00 0.00 76 1010.7
20260510100055 71 0 0.0 6.0 0.00 0.00 0.00 75 1010.5
20260510094552 71 168 1.0 9.0 0.00 0.00 0.00 75 1010.6
20260510093051 71 199 1.0 4.0 0.00 0.00 0.00 75 1010.4
20260510091551 72 136 1.0 5.0 0.00 0.00 0.00 74 1010.2
20260510090057 72 170 2.0 8.0 0.00 0.00 0.00 73 1010.0
20260510084550 72 182 2.0 7.0 0.00 0.00 0.00 73 1010.1
20260510083054 72 165 1.0 5.0 0.00 0.00 0.00 73 1010.0
20260510081554 71 200 2.0 7.0 0.00 0.00 0.00 73 1010.1
20260510080056 71 224 1.0 5.0 0.00 0.00 0.00 72 1010.1
20260510074557 71 148 2.0 6.0 0.00 0.00 0.00 71 1010.2
20260510073106 70 194 0.0 5.0 0.00 0.00 0.00 71 1010.3
20260510071559 71 195 0.0 3.0 0.00 0.00 0.00 70 1010.4
20260510070054 71 193 0.0 3.0 0.00 0.00 0.00 70 1010.4
20260510064556 72 212 0.0 4.0 0.00 0.00 0.00 70 1010.4
20260510063058 72 211 1.0 5.0 0.00 0.00 0.00 69 1010.7
20260510061550 72 212 1.0 6.0 0.00 0.00 0.00 68 1010.8
20260510060049 73 0 0.0 6.0 0.00 0.00 0.00 68 1010.9
20260510054551 73 193 2.0 5.0 0.00 0.00 0.00 67 1011.0
20260510053050 74 207 1.0 7.0 0.00 0.00 0.00 66 1010.9
20260510051555 74 0 2.0 5.0 0.00 0.00 0.00 63 1011.0
20260510050049 75 198 1.0 5.0 0.00 0.00 0.00 61 1011.0
20260510044553 75 227 1.0 5.0 0.00 0.00 0.00 60 1011.0
20260510043105 75 193 0.0 4.0 0.00 0.00 0.00 61 1011.1
20260510041555 77 163 0.0 4.0 0.00 0.00 0.00 58 1011.0
20260510034551 79 112 0.0 5.0 0.00 0.00 0.00 54 1010.9
20260510033052 79 178 1.0 5.0 0.00 0.00 0.00 53 1010.9
20260510031556 79 155 1.0 6.0 0.00 0.00 0.00 55 1010.7
20260510030048 79 139 1.0 6.0 0.00 0.00 0.00 56 1010.6
20260510024551 80 128 2.0 6.0 0.00 0.00 0.00 54 1010.3
20260510023053 81 133 2.0 6.0 0.00 0.00 0.00 51 1010.2
20260510021550 83 121 2.0 7.0 0.00 0.00 0.00 47 1010.1
20260510020049 84 131 2.0 6.0 0.00 0.00 0.00 45 1009.8
20260510014559 85 140 3.0 7.0 0.00 0.00 0.00 42 1009.6
20260510013055 86 136 2.0 5.0 0.00 0.00 0.00 40 1009.5
20260510011551 87 0 0.0 6.0 0.00 0.00 0.00 40 1009.3
20260510010051 88 0 0.0 5.0 0.00 0.00 0.00 37 1009.2
20260510004549 89 138 2.0 7.0 0.00 0.00 0.00 37 1009.2
20260510003057 89 223 1.0 5.0 0.00 0.00 0.00 37 1009.1
20260510001557 90 156 1.0 7.0 0.00 0.00 0.00 33 1009.1
20260510000055 90 196 2.0 7.0 0.00 0.00 0.00 35 1009.0
20260509234555 91 0 1.0 5.0 0.00 0.00 0.00 33 1008.9
20260509233055 91 180 2.0 7.0 0.00 0.00 0.00 32 1009.1
20260509231558 91 188 2.0 9.0 0.00 0.00 0.00 34 1009.1
20260509230056 91 264 3.0 8.0 0.00 0.00 0.00 32 1009.1
20260509224558 91 241 0.0 7.0 0.00 0.00 0.00 36 1009.2
20260509223050 90 111 2.0 9.0 0.00 0.00 0.00 34 1009.1
20260509221602 90 106 4.0 10.0 0.00 0.00 0.00 34 1009.2
20260509220048 90 183 3.0 8.0 0.00 0.00 0.00 39 1009.4
20260509214554 90 205 3.0 9.0 0.00 0.00 0.00 39 1009.5
20260509213053 90 306 2.0 8.0 0.00 0.00 0.00 37 1009.7
20260509211559 89 238 3.0 9.0 0.00 0.00 0.00 35 1009.9
20260509210114 89 180 2.0 8.0 0.00 0.00 0.00 39 1010.2
20260509204559 88 217 3.0 9.0 0.00 0.00 0.00 42 1010.4
20260509203056 88 207 4.0 13.0 0.00 0.00 0.00 43 1010.6
20260509201603 88 274 2.0 7.0 0.00 0.00 0.00 45 1010.8
20260509200106 88 232 2.0 8.0 0.00 0.00 0.00 45 1011.0
20260509194613 87 211 3.0 9.0 0.00 0.00 0.00 46 1011.2
20260509193058 86 291 3.0 8.0 0.00 0.00 0.00 45 1011.5
20260509191603 86 150 4.0 10.0 0.00 0.00 0.00 48 1011.5
20260509190108 85 243 1.0 9.0 0.00 0.00 0.00 53 1011.6
20260509184554 84 199 2.0 9.0 0.00 0.00 0.00 53 1011.9
20260509183100 84 215 3.0 9.0 0.00 0.00 0.00 52 1012.0
20260509181559 83 193 3.0 9.0 0.00 0.00 0.00 53 1012.3
20260509180053 82 244 2.0 9.0 0.00 0.00 0.00 58 1012.5
20260509174553 81 113 2.0 9.0 0.00 0.00 0.00 60 1012.7
20260509173051 80 250 2.0 7.0 0.00 0.00 0.00 62 1012.8
20260509171554 80 151 2.0 7.0 0.00 0.00 0.00 66 1012.6
20260509170059 78 0 0.0 7.0 0.00 0.00 0.00 68 1012.8
20260509164556 76 169 2.0 8.0 0.00 0.00 0.00 70 1013.0
20260509163053 75 175 2.0 8.0 0.00 0.00 0.00 72 1013.2
20260509161600 74 180 2.0 7.0 0.00 0.00 0.00 74 1013.1
20260509160053 74 139 1.0 7.0 0.00 0.00 0.00 76 1013.1
20260509154550 73 175 2.0 6.0 0.00 0.00 0.00 77 1013.3
20260509153055 71 235 2.0 7.0 0.00 0.00 0.00 81 1013.2
20260509151552 69 168 1.0 4.0 0.00 0.00 0.00 85 1013.4
20260509150051 67 0 0.0 0.0 0.00 0.00 0.00 89 1013.7
20260509144550 66 0 0.0 2.0 0.00 0.00 0.00 90 1013.8
20260509143052 65 0 1.0 4.0 0.00 0.00 0.00 92 1013.8
20260509141553 64 0 0.0 4.0 0.00 0.00 0.00 93 1013.6
20260509140100 64 0 0.0 3.0 0.00 0.00 0.00 93 1013.4
20260509134624 64 0 0.0 3.0 0.00 0.00 0.00 93 1013.5
20260509133052 63 0 0.0 0.0 0.00 0.00 0.00 92 1013.5
20260509131553 63 0 0.0 0.0 0.00 0.00 0.00 93 1013.3
20260509130051 62 0 0.0 1.0 0.00 0.00 0.00 93 1013.0
20260509124550 61 0 0.0 0.0 0.00 0.00 0.00 94 1013.2
20260509123052 60 0 0.0 0.0 0.00 0.00 0.00 93 1012.7
20260509121553 60 0 0.0 0.0 0.00 0.00 0.00 93 1012.6
20260509120053 60 0 0.0 2.0 0.00 0.00 0.00 93 1012.3
20260509114553 60 0 0.0 4.0 0.00 0.00 0.00 93 1012.0
20260509113057 60 247 1.0 3.0 0.00 0.00 0.00 93 1011.8
20260509111553 60 193 0.0 4.0 0.00 0.00 0.00 92 1011.9
20260509110055 60 279 0.0 3.0 0.00 0.00 0.00 92 1011.9